Flag for Tunisia Weather past 2 weeks in Kairouan, Tunisia

Now
48 °F

Passing clouds.


Feels Like: 46 °F
Forecast: 47 / 56 °F
Wind: 5 mph from Northwest

Location: Kairouan Airport

Current Time: Mar 7, 2015 at 1:17:40 AM

Latest Report: Mar 7, 2015 at 12:00 AM


Visibility: N/A

Pressure: 30.24 "Hg

Humidity: 62%

Dew point: 36 °F

Location of KairouanLocation

Historic Weather in Kairouan — Graph

°F

Kairouan temperature yesterday

Maximum temperature yesterday: 59 °F (at 2:00 PM)
Minimum temperature yesterday: 48 °F (at 5:00 AM)
Average temperature yesterday: 52 °F

Past Weeks' High & Low Weather Summary

 TemperatureHumidityPressure
High84 °F (Mar 4, 3:00 PM)100% (Feb 20, 2:00 AM)30.36 "Hg (Feb 20, 2:00 AM)
Low43 °F (Mar 1, 7:00 AM)27% (Mar 4, 3:00 PM)29.39 "Hg (Feb 22, 5:00 AM)
Average55 °F68%29.99 "Hg
* Reported Midnight between Feb 19 and Feb 20 — Midnight between Mar 6 and Mar 7, Kairouan, Weather by CustomWeather, © 2015

Note: Actual official high and low records may vary slightly from our data, if they occured in-between our weather recording intervals... More about our weather records

Advertising

Kairouan weather history for previous 24 hours

 ConditionsComfort  
Time TempWeatherWind HumidityBarometerVisibility
12:00 AM
Sat, Mar 7
48 °FPassing clouds.5 mph62%30.24 "HgN/A
11:00 PM
Fri, Mar 6
48 °FPassing clouds.5 mph66%30.24 "HgN/A
10:00 PM50 °FPassing clouds.7 mph62%30.24 "HgN/A
9:00 PM50 °FPassing clouds.7 mph58%30.24 "HgN/A
8:00 PM50 °FPassing clouds.7 mph58%30.21 "HgN/A
7:00 PM50 °FPassing clouds.9 mph62%30.18 "HgN/A
6:00 PM52 °FScattered clouds.12 mph58%30.15 "HgN/A
5:00 PM54 °FScattered clouds.14 mph58%30.15 "HgN/A
4:00 PM57 °FScattered clouds.12 mph39%30.12 "HgN/A
3:00 PM57 °FPartly sunny.12 mph39%30.09 "HgN/A
2:00 PM59 °FScattered clouds.10 mph36%30.09 "HgN/A
1:00 PM57 °FScattered clouds.12 mph39%30.12 "HgN/A
12:00 PM55 °FScattered clouds.12 mph47%30.15 "HgN/A
11:00 AM54 °FScattered clouds.9 mph54%30.15 "HgN/A
10:00 AM54 °FScattered clouds.9 mph51%30.15 "HgN/A
9:00 AM52 °FScattered clouds.5 mph54%30.12 "HgN/A
8:00 AM50 °FScattered clouds.5 mph58%30.12 "HgN/A
7:00 AM48 °FScattered clouds.5 mph58%30.09 "HgN/A
6:00 AM48 °FPassing clouds.5 mph62%30.09 "HgN/A
5:00 AM48 °FPassing clouds.3 mph62%30.07 "HgN/A
4:00 AM50 °FPassing clouds.7 mph58%30.07 "HgN/A
3:00 AM50 °FCool.3 mph58%30.07 "HgN/A
2:00 AM50 °FPassing clouds.3 mph62%30.09 "HgN/A
1:00 AM52 °FPassing clouds.7 mph58%30.07 "HgN/A
Weather by CustomWeather, © 2015

See weather overviewHow to use our weather pages